Terminal Aerodrome Forecast
Issued by NWS

Home | Current Version | Previous Version | Text Only | Print | Product List | Glossary On
Versions: 1 2 3 4 5 6 7 8 9 10 11 12 13 14 15 16 17 18 19 20 21
000
FTUS43 KAPX 060538
TAFPLN
TAF
KPLN 060538Z 0606/0706 VRB03KT P6SM BKN250
     FM061500 12006KT P6SM BKN150
     FM062000 09007KT P6SM SCT050 SCT100
     FM070100 09003KT P6SM BKN100=

USA.gov is the U.S. government's official web portal to all federal, state and local government web resources and services.